SCP
0 0 0 0 0 0 0 0 0 0 -0 -0 0 -0 -0 -0 0 -0 0 0 0 0 -0 0 0 0 0 0 0 0 0 0 0 0 0 0 0 0 0 0 0 0 0 0
0 0 0 0 0 0 0 0 0 -0 -0 0 0 -0 -0 -0 0 0 -0 -0 -0 0 0 0 0 0 0 -0 0 0 0 0 0 0 0 0 0 0 0 0 0 0 0 0
0 0 0 0 0 0 0 -0 -0 0 0 -0 -0 -0 0 0 0 0 0 0 0 0 0 0 0 0 0 0 -0 0 0 0 0 0 0 0 0 0 0 0 0 0 0 0
0 0 0 0 0 0 0 0 0 0 -0 -0 0 0 0 0 0 0 0 0 0 0 0 0 0 0 0 0 0 0 0 0 0 0 0 0 0 0 0 0 0 0 0 0
0 0 0 0 0 0 -0 0 -0 0 -0 -0 -0 0 0 0 0 0 0 0 0 0 0 0 0 0 0 0 0 0 0 0 0 0 0 0 0 0 0 0 0 0 0 0
0 -0 -0 0 0 0 -0 -0 0 0 0 -0 -0 0 0 0 0 0 -0 -0 -0 0 0 0 0 0 0 0 0 0 0 0 0 0 0 0 0 0 0 0 0 0 0 0
-0 -0 0 0 0 0 -0 0 0 0 0 0 0 -0 0 0 0 0 0 0 0 -0 0 -0 0 0 0 0 0 0 0 0 0 0 0 0 0 0 0 0 0 0 0 0
0 0 0 0 0 0 -0 -0 -0 0 0 0 0 -0 -0 0 -0 0 0 0 0 0 0 0 0 0 0 0 0 0 0 0 0 0 0 0 0 0 0 0 0 0 0 0
0 0 0 0 -0 -0 0 -0 -0 0 0 0 0 0 0 0 0 0 0 0 0 0 0 0 0 0 0 0 0 0 0 0 0 0 0 0 0 0 0 0 0 0 0 0
-0 -0 -0 0 -0 -0 -0 -0 -0 0 0 0 -0 0 0 0 0 0 0 0 0 0 0 0 0 0 0 0 0 0 0 0 0 0 0 0 0 0 0 0 0 0 0 0
-0 -0 -0 -0 -0 -0 -0 0 0 0 0 0 -0 -0 0 0 0 0 0 0 0 0 0 0 0 0 0 0 0 0 0 0 0 0 0 0 0 0 0 0 0 0 0 0
-0 -0 0 -0 -0 -0 -0 -0 0 0 -0 0 0 0 0 0 -0 0 0 0 0 0 0 0 0 0 0 0 0 0 0 0 0 0 0 0 0 0 0 0 0 0 0 0
0 -0 -0 -0 -0 -0 -0 -0 0 0 0 -0 0 0 0 0 0 0 0 0 0 0 0 0 0 0 0 0 0 0 0 0 0 0 0 0 0 0 0 0 0 0 0 0
0 0 -0 -0 -0 -0 -0 0 -0 0 0 0 0 0 0 0 0 0 0 0 0 0 0 0 0 0 0 0 0 0 0 0 0 0 0 0 0 0 0 0 0 0 0 0
-0 -0 -0 -0 -0 -0 -0 0 0 0 0 0 0 -0 -0 0 0 0 0 0 0 0 0 0 0 0 0 0 0 0 0 0 0 0 0 0 0 0 0 0 0 0 0 0
-0 -0 -0 -0 -0 -0 0 0 -0 -0 0 0 0 0 0 0 0 0 0 0 0 0 0 0 0 0 0 0 0 0 0 0 0 0 0 0 0 0 0 0 0 0 0 0
-0 -0 -0 -0 0 0 -0 0 0 -0 0 0 0 -0 0 0 0 0 0 0 0 0 0 0 0 0 0 0 0 0 0 0 0 0 0 0 0 0 0 0 0 0 0 0
-0 -0 0 -0 0 -0 -0 0 -0 -0 0 0 0 0 0 0 0 0 0 0 0 0 0 0 0 0 0 0 0 0 0 0 0 0 0 0 0 0 0 0 0 0 0 0
-0 0 -0 0 -0 -0 -0 -0 -0 -0 0 0 0 0 0 0 0 0 0 0 0 0 0 0 0 0 0 0 0 0 0 0 0 0 0 0 0 0 0 0 0 0 0 0
-0 0 0 -0 -0 -0 -0 0 -0 -0 0 0 0 0 0 0 0 0 0 0 0 0 0 -0 0 0 0 0 0 0 0 0 0 0 0 0 0 0 0 0 0 0 0 0
0 0 0 0 -0 0 0 -0 0 0 0 0 0 0 0 0 0 0 0 0 0 0 0 0 0 0 0 0 0 0 0 0 0 0 0 0 0 0 0 0 0 0 0 -0
0 0 0 0 0 0 0 -0 -0 -0 0 0 0 0 0 0 0 0 0 0 0 0 0 0 0 0 0 0 0 0 0 0 0 0 0 0 0 0 0 0 0 0 -0 -0
0 0 0 0 0 0 0 -0 -0 -0 0 0 0 0 0 0 0 0 0 0 0 0 0 0 0 -0 0 0 0 0 0 0 0 0 0 0 -0 0 0 -0 0 -0 -0 -0
0 0 0 0 0 0 0 0 -0 0 0 0 0 0 0 0 0 0 0 0 0 0 0 0 0 -0 -0 -0 0 0 0 0 0 0 0 0 0 -0 0 -0 -0 -0 -0 -0
0 0 0 0 0 0 0 0 -0 0 0 0 0 0 0 0 0 0 0 0 0 0 0 0 0 -0 -0 -0 0 0 0 0 0 0 0 0 0 0 -0 -0 -0 0 0 0
-0 -0 -0 -0 0 0 0 0 0 0 0 -0 0 0 0 0 0 0 0 0 0 0 0 -0 -0 -0 -0 -0 -0 -0 -0 -0 -0 0 0 0 0 0 -0 -0 -0 0 0 0
0 0 -0 -0 0 0 0 0 0 0 0 0 0 0 0 0 0 0 0 0 0 0 0 0 -0 -0 -0 -0 -0 -0 -0 0 -0 0 0 0 0 0 0 0 0 0 0 0
Wind_Speed_500mb
63 61 58 54 56 63 42 23 12 14 27 8 12 30 49 58 31 33 4 5 8 19 49 44 48 37 31 51 27 36 20 13 25 23 10 12 24 37 31 18 18 14 13 7
63 60 55 51 55 53 52 29 22 12 23 6 10 30 42 51 35 17 6 7 13 27 21 27 35 32 3 75 58 44 29 20 17 9 3 8 23 14 18 14 9 20 19 5
63 58 54 50 53 48 47 14 9 10 19 11 7 14 33 38 35 35 10 5 11 11 9 17 31 29 12 36 54 38 26 13 23 16 28 28 22 21 19 22 17 22 23 10
58 54 49 51 50 46 27 8 9 16 9 5 23 6 24 22 23 11 10 6 11 9 5 10 29 31 38 26 16 13 21 21 14 20 22 13 19 23 19 23 24 19 20 21
53 45 46 51 50 42 17 14 12 19 27 25 24 14 10 12 15 7 11 11 18 20 5 8 24 39 29 21 17 22 8 15 21 16 11 6 9 13 19 19 18 19 19 20
47 41 49 47 46 43 19 25 38 18 20 20 13 11 18 13 8 29 34 28 21 11 2 9 31 36 27 16 23 21 13 18 17 12 11 4 14 29 27 22 17 21 23 14
34 45 48 46 41 37 30 29 35 10 10 22 20 24 22 7 25 21 23 18 25 26 48 48 41 45 43 24 23 14 25 23 10 12 17 11 12 11 0 23 16 20 13 5
38 44 44 41 42 38 26 22 24 12 8 26 17 29 21 34 41 17 24 20 12 10 6 22 19 19 18 13 24 21 18 12 8 10 19 8 17 10 11 22 19 14 18 12
37 43 41 38 38 41 28 22 32 20 11 18 30 13 27 13 12 19 11 16 11 5 2 5 11 6 13 7 8 12 16 15 8 8 7 10 15 11 8 5 15 14 10 13
35 35 37 38 38 37 30 20 30 18 11 21 31 11 12 11 11 7 10 18 16 16 3 6 9 10 8 9 14 19 13 7 7 10 4 3 16 15 12 14 11 17 11 9
34 29 32 37 38 35 33 18 26 21 12 9 26 28 20 21 23 11 5 10 9 9 7 6 6 9 7 8 12 16 11 11 8 8 7 5 11 14 9 16 14 7 5 5
30 24 28 35 34 35 32 22 24 22 5 13 16 16 17 13 15 16 12 7 6 13 4 8 5 5 7 14 9 10 8 4 9 7 8 12 14 17 11 5 1 3 8 6
32 29 29 29 35 36 37 20 27 20 10 3 7 11 11 10 11 14 13 13 7 11 8 7 4 7 6 6 9 10 7 7 3 11 12 12 15 9 2 6 10 9 10 15
29 27 30 31 32 30 28 23 27 20 7 7 13 17 10 13 10 11 15 10 13 10 10 9 6 5 8 5 6 1 8 10 6 6 13 8 8 4 8 11 10 12 16 18
30 28 31 33 33 26 18 13 22 24 8 8 8 3 26 14 9 12 15 14 13 12 9 8 6 5 4 5 3 5 1 7 4 7 12 7 8 10 16 13 13 16 15 14
34 31 31 34 29 18 8 5 13 19 13 7 3 5 19 21 18 20 17 15 15 15 10 8 7 6 6 1 4 10 8 2 4 4 5 7 10 11 9 12 13 8 6 6
35 34 30 25 19 11 4 7 11 19 11 7 5 7 9 13 7 11 18 14 11 9 6 7 6 9 5 4 3 9 11 9 7 7 10 13 6 4 9 11 6 4 4 9
35 27 20 11 13 8 8 7 11 16 6 4 4 3 6 13 7 6 12 6 6 13 6 4 6 6 5 3 9 6 9 6 5 5 5 5 6 11 7 8 6 13 16 18
24 19 13 10 9 9 12 11 6 9 6 5 4 3 4 7 8 5 5 5 4 5 5 4 5 4 3 11 10 5 2 4 9 14 11 4 6 6 10 11 15 20 23 24
21 12 5 5 9 16 11 6 3 1 2 2 3 3 3 4 3 2 1 5 2 2 8 4 4 5 9 14 13 4 6 8 10 13 12 13 13 14 16 18 20 21 21 22
16 12 7 14 12 7 3 4 5 5 2 4 6 8 5 5 3 3 2 2 2 1 5 2 0 4 2 12 22 20 18 15 13 11 10 11 12 15 17 19 18 12 18 22
20 15 12 11 6 4 3 2 1 3 4 4 5 5 5 5 4 1 3 1 3 4 8 3 7 5 8 13 18 18 16 14 14 14 13 13 15 17 15 10 15 17 18 19
9 10 5 6 4 3 3 3 5 3 9 6 2 4 1 4 3 6 2 1 3 5 4 5 6 19 16 14 14 16 18 21 20 19 18 17 18 12 16 14 16 18 16 17
6 7 5 5 2 6 4 9 7 6 6 1 6 2 4 1 4 3 4 3 3 4 5 4 5 21 18 14 14 17 19 20 20 18 21 23 21 17 19 19 19 16 16 17
4 4 5 6 8 11 11 5 6 5 2 2 1 2 5 2 2 2 2 3 4 3 4 3 21 22 19 17 19 17 17 20 21 19 23 25 25 21 22 23 21 18 20 21
3 1 4 9 7 5 4 2 9 1 3 3 4 4 5 3 2 3 4 5 1 4 6 22 24 21 19 20 19 17 17 19 20 22 23 25 27 25 24 23 25 27 26 28
3 2 2 4 9 12 13 16 9 3 3 0 4 3 6 2 3 4 1 3 5 27 19 21 21 20 21 20 17 15 16 19 21 21 23 25 26 27 28 32 29 29 31 30
Wind_Direction_500mb
343 342 342 343 343 341 346 320 307 336 155 208 203 232 225 234 253 224 166 81 26 262 182 195 184 183 195 183 198 187 160 190 174 171 57 311 220 211 207 221 205 245 282 290
345 345 345 346 346 347 339 312 297 299 211 291 248 249 236 235 249 238 182 142 137 305 229 200 185 161 239 174 184 183 174 160 153 181 226 204 207 197 214 232 274 228 233 218
347 346 346 346 349 349 336 302 310 20 183 19 296 329 253 232 241 236 129 114 128 246 154 233 180 137 133 186 190 167 180 158 202 193 195 183 186 188 200 218 228 240 239 205
347 346 349 344 354 350 345 291 336 354 310 332 348 244 292 238 203 83 82 74 265 124 133 144 158 137 127 135 157 123 174 176 135 96 103 152 189 189 191 216 236 250 258 259
348 351 355 346 354 357 351 352 331 322 294 324 356 5 325 71 91 66 81 79 110 134 215 71 138 141 141 146 156 141 170 141 149 117 111 125 192 205 210 222 231 229 256 242
353 350 353 351 358 6 358 343 334 293 293 350 344 320 332 345 114 35 129 116 103 90 138 297 79 67 68 18 149 122 129 148 184 178 156 115 256 226 217 220 215 236 230 249
355 353 358 1 0 1 354 344 336 304 312 15 6 1 354 15 76 113 95 92 104 107 105 108 86 63 59 56 68 129 148 141 134 137 154 203 90 84 51 230 207 221 243 204
351 354 359 2 3 1 354 352 4 311 311 356 349 10 9 45 57 55 67 45 59 149 238 131 129 128 126 66 44 75 126 112 113 153 196 90 152 180 153 158 179 195 200 166
353 353 358 360 2 5 6 1 5 343 300 21 345 332 14 34 35 76 27 17 11 339 298 106 145 113 99 116 95 72 92 82 104 151 185 189 95 135 155 189 166 161 191 172
356 356 0 2 3 6 5 355 4 352 314 29 17 0 351 6 55 22 9 344 6 359 85 99 103 105 100 134 145 165 150 134 159 144 182 122 128 141 158 213 92 135 155 156
358 356 354 357 3 6 11 343 1 2 325 356 6 3 7 17 34 62 263 313 23 347 45 48 69 111 99 115 142 155 171 153 172 164 191 185 155 151 247 84 119 139 181 256
356 351 347 349 360 2 2 354 355 338 311 321 359 46 20 27 21 354 65 77 39 18 45 53 79 113 170 136 145 173 168 91 169 186 70 99 140 79 107 103 324 279 281 298
360 353 354 356 357 358 355 343 351 14 351 148 77 5 354 26 14 15 342 70 29 57 18 32 65 91 295 142 96 122 128 181 154 194 121 135 143 160 139 318 305 311 293 294
347 354 351 347 344 347 353 15 17 16 331 309 73 37 17 345 15 22 35 61 56 63 45 60 54 88 330 78 77 238 34 192 192 198 145 159 173 46 357 330 317 303 293 293
340 338 338 335 332 334 331 330 359 9 12 335 22 54 15 29 61 59 68 56 42 31 56 56 63 60 312 75 223 143 216 24 249 41 51 337 21 344 324 314 306 304 308 304
335 328 332 337 336 338 340 323 2 17 8 330 358 60 43 59 76 84 74 56 45 52 44 61 71 53 333 357 98 79 69 53 356 344 355 305 291 294 312 319 326 328 326 334
333 329 331 340 0 20 35 24 345 4 11 341 278 114 7 11 66 60 56 48 46 37 78 53 57 75 4 358 75 67 34 11 334 293 283 279 278 330 327 318 309 325 308 314
333 334 340 360 21 44 26 53 25 14 356 347 336 2 1 4 49 53 18 34 34 36 63 46 26 81 21 97 73 42 45 76 43 59 23 322 329 310 329 337 308 289 291 304
339 339 358 23 17 13 340 320 27 53 29 359 303 357 62 28 38 62 30 8 73 33 54 45 345 90 74 33 335 289 247 37 17 344 306 331 315 308 312 307 300 302 305 307
344 359 8 8 338 327 342 354 338 102 48 9 315 68 70 43 57 55 118 16 70 89 53 83 27 73 351 337 344 270 263 262 342 332 3 353 332 337 319 315 312 308 308 312
9 2 358 321 329 359 336 340 341 14 32 18 22 15 43 63 28 99 7 114 215 145 83 317 147 124 210 40 67 68 70 69 52 37 16 1 347 335 326 324 327 351 328 322
332 317 328 348 347 309 292 37 122 330 42 55 355 54 18 40 1 1 47 23 211 73 127 191 161 99 96 88 75 69 58 48 39 32 34 24 11 357 352 14 353 346 334 330
0 15 329 334 345 282 333 58 113 21 349 349 306 168 247 178 237 76 47 205 61 101 217 187 74 116 133 108 82 67 64 52 51 58 46 27 18 21 18 16 7 355 352 349
357 357 353 350 357 18 323 337 341 1 306 249 315 180 261 283 192 161 227 77 218 233 202 96 111 145 128 101 89 91 65 52 62 57 38 36 27 26 11 14 12 12 14 7
352 335 357 18 336 290 290 294 274 271 271 113 118 276 304 195 148 299 83 183 209 271 60 105 148 134 121 109 106 94 68 57 58 53 43 40 34 32 27 23 30 35 28 34
331 317 321 341 290 9 18 236 275 213 149 115 205 187 226 176 353 220 222 304 347 80 112 141 133 128 122 120 111 94 69 65 63 56 51 45 42 36 31 39 37 43 44 47
300 144 340 310 285 281 313 332 358 28 288 317 300 264 56 26 232 212 8 10 91 123 137 127 126 131 130 126 115 99 76 70 67 62 57 53 51 50 47 47 44 48 54 57
Wind_Speed_850mb
63 61 58 54 56 63 42 23 12 14 27 8 12 30 49 58 31 33 4 5 8 19 49 44 48 37 31 51 27 36 20 13 25 23 10 12 24 37 31 18 18 14 13 7
63 60 55 51 55 53 52 29 22 12 23 6 10 30 42 51 35 17 6 7 13 27 21 27 35 32 3 75 58 44 29 20 17 9 3 8 23 14 18 14 9 20 19 5
63 58 54 50 53 48 47 14 9 10 19 11 7 14 33 38 35 35 10 5 11 11 9 17 31 29 12 36 54 38 26 13 23 16 28 28 22 21 19 22 17 22 23 10
58 54 49 51 50 46 27 8 9 16 9 5 23 6 24 22 23 11 10 6 11 9 5 10 29 31 38 26 16 13 21 21 14 20 22 13 19 23 19 23 24 19 20 21
53 45 46 51 50 42 17 14 12 19 27 25 24 14 10 12 15 7 11 11 18 20 5 8 24 39 29 21 17 22 8 15 21 16 11 6 9 13 19 19 18 19 19 20
47 41 49 47 46 43 19 25 38 18 20 20 13 11 18 13 8 29 34 28 21 11 2 9 31 36 27 16 23 21 13 18 17 12 11 4 14 29 27 22 17 21 23 14
34 45 48 46 41 37 30 29 35 10 10 22 20 24 22 7 25 21 23 18 25 26 48 48 41 45 43 24 23 14 25 23 10 12 17 11 12 11 0 23 16 20 13 5
38 44 44 41 42 38 26 22 24 12 8 26 17 29 21 34 41 17 24 20 12 10 6 22 19 19 18 13 24 21 18 12 8 10 19 8 17 10 11 22 19 14 18 12
37 43 41 38 38 41 28 22 32 20 11 18 30 13 27 13 12 19 11 16 11 5 2 5 11 6 13 7 8 12 16 15 8 8 7 10 15 11 8 5 15 14 10 13
35 35 37 38 38 37 30 20 30 18 11 21 31 11 12 11 11 7 10 18 16 16 3 6 9 10 8 9 14 19 13 7 7 10 4 3 16 15 12 14 11 17 11 9
34 29 32 37 38 35 33 18 26 21 12 9 26 28 20 21 23 11 5 10 9 9 7 6 6 9 7 8 12 16 11 11 8 8 7 5 11 14 9 16 14 7 5 5
30 24 28 35 34 35 32 22 24 22 5 13 16 16 17 13 15 16 12 7 6 13 4 8 5 5 7 14 9 10 8 4 9 7 8 12 14 17 11 5 1 3 8 6
32 29 29 29 35 36 37 20 27 20 10 3 7 11 11 10 11 14 13 13 7 11 8 7 4 7 6 6 9 10 7 7 3 11 12 12 15 9 2 6 10 9 10 15
29 27 30 31 32 30 28 23 27 20 7 7 13 17 10 13 10 11 15 10 13 10 10 9 6 5 8 5 6 1 8 10 6 6 13 8 8 4 8 11 10 12 16 18
30 28 31 33 33 26 18 13 22 24 8 8 8 3 26 14 9 12 15 14 13 12 9 8 6 5 4 5 3 5 1 7 4 7 12 7 8 10 16 13 13 16 15 14
34 31 31 34 29 18 8 5 13 19 13 7 3 5 19 21 18 20 17 15 15 15 10 8 7 6 6 1 4 10 8 2 4 4 5 7 10 11 9 12 13 8 6 6
35 34 30 25 19 11 4 7 11 19 11 7 5 7 9 13 7 11 18 14 11 9 6 7 6 9 5 4 3 9 11 9 7 7 10 13 6 4 9 11 6 4 4 9
35 27 20 11 13 8 8 7 11 16 6 4 4 3 6 13 7 6 12 6 6 13 6 4 6 6 5 3 9 6 9 6 5 5 5 5 6 11 7 8 6 13 16 18
24 19 13 10 9 9 12 11 6 9 6 5 4 3 4 7 8 5 5 5 4 5 5 4 5 4 3 11 10 5 2 4 9 14 11 4 6 6 10 11 15 20 23 24
21 12 5 5 9 16 11 6 3 1 2 2 3 3 3 4 3 2 1 5 2 2 8 4 4 5 9 14 13 4 6 8 10 13 12 13 13 14 16 18 20 21 21 22
16 12 7 14 12 7 3 4 5 5 2 4 6 8 5 5 3 3 2 2 2 1 5 2 0 4 2 12 22 20 18 15 13 11 10 11 12 15 17 19 18 12 18 22
20 15 12 11 6 4 3 2 1 3 4 4 5 5 5 5 4 1 3 1 3 4 8 3 7 5 8 13 18 18 16 14 14 14 13 13 15 17 15 10 15 17 18 19
9 10 5 6 4 3 3 3 5 3 9 6 2 4 1 4 3 6 2 1 3 5 4 5 6 19 16 14 14 16 18 21 20 19 18 17 18 12 16 14 16 18 16 17
6 7 5 5 2 6 4 9 7 6 6 1 6 2 4 1 4 3 4 3 3 4 5 4 5 21 18 14 14 17 19 20 20 18 21 23 21 17 19 19 19 16 16 17
4 4 5 6 8 11 11 5 6 5 2 2 1 2 5 2 2 2 2 3 4 3 4 3 21 22 19 17 19 17 17 20 21 19 23 25 25 21 22 23 21 18 20 21
3 1 4 9 7 5 4 2 9 1 3 3 4 4 5 3 2 3 4 5 1 4 6 22 24 21 19 20 19 17 17 19 20 22 23 25 27 25 24 23 25 27 26 28
3 2 2 4 9 12 13 16 9 3 3 0 4 3 6 2 3 4 1 3 5 27 19 21 21 20 21 20 17 15 16 19 21 21 23 25 26 27 28 32 29 29 31 30
Wind_Direction_850mb
343 342 342 343 343 341 346 320 307 336 155 208 203 232 225 234 253 224 166 81 26 262 182 195 184 183 195 183 198 187 160 190 174 171 57 311 220 211 207 221 205 245 282 290
345 345 345 346 346 347 339 312 297 299 211 291 248 249 236 235 249 238 182 142 137 305 229 200 185 161 239 174 184 183 174 160 153 181 226 204 207 197 214 232 274 228 233 218
347 346 346 346 349 349 336 302 310 20 183 19 296 329 253 232 241 236 129 114 128 246 154 233 180 137 133 186 190 167 180 158 202 193 195 183 186 188 200 218 228 240 239 205
347 346 349 344 354 350 345 291 336 354 310 332 348 244 292 238 203 83 82 74 265 124 133 144 158 137 127 135 157 123 174 176 135 96 103 152 189 189 191 216 236 250 258 259
348 351 355 346 354 357 351 352 331 322 294 324 356 5 325 71 91 66 81 79 110 134 215 71 138 141 141 146 156 141 170 141 149 117 111 125 192 205 210 222 231 229 256 242
353 350 353 351 358 6 358 343 334 293 293 350 344 320 332 345 114 35 129 116 103 90 138 297 79 67 68 18 149 122 129 148 184 178 156 115 256 226 217 220 215 236 230 249
355 353 358 1 0 1 354 344 336 304 312 15 6 1 354 15 76 113 95 92 104 107 105 108 86 63 59 56 68 129 148 141 134 137 154 203 90 84 51 230 207 221 243 204
351 354 359 2 3 1 354 352 4 311 311 356 349 10 9 45 57 55 67 45 59 149 238 131 129 128 126 66 44 75 126 112 113 153 196 90 152 180 153 158 179 195 200 166
353 353 358 360 2 5 6 1 5 343 300 21 345 332 14 34 35 76 27 17 11 339 298 106 145 113 99 116 95 72 92 82 104 151 185 189 95 135 155 189 166 161 191 172
356 356 0 2 3 6 5 355 4 352 314 29 17 0 351 6 55 22 9 344 6 359 85 99 103 105 100 134 145 165 150 134 159 144 182 122 128 141 158 213 92 135 155 156
358 356 354 357 3 6 11 343 1 2 325 356 6 3 7 17 34 62 263 313 23 347 45 48 69 111 99 115 142 155 171 153 172 164 191 185 155 151 247 84 119 139 181 256
356 351 347 349 360 2 2 354 355 338 311 321 359 46 20 27 21 354 65 77 39 18 45 53 79 113 170 136 145 173 168 91 169 186 70 99 140 79 107 103 324 279 281 298
360 353 354 356 357 358 355 343 351 14 351 148 77 5 354 26 14 15 342 70 29 57 18 32 65 91 295 142 96 122 128 181 154 194 121 135 143 160 139 318 305 311 293 294
347 354 351 347 344 347 353 15 17 16 331 309 73 37 17 345 15 22 35 61 56 63 45 60 54 88 330 78 77 238 34 192 192 198 145 159 173 46 357 330 317 303 293 293
340 338 338 335 332 334 331 330 359 9 12 335 22 54 15 29 61 59 68 56 42 31 56 56 63 60 312 75 223 143 216 24 249 41 51 337 21 344 324 314 306 304 308 304
335 328 332 337 336 338 340 323 2 17 8 330 358 60 43 59 76 84 74 56 45 52 44 61 71 53 333 357 98 79 69 53 356 344 355 305 291 294 312 319 326 328 326 334
333 329 331 340 0 20 35 24 345 4 11 341 278 114 7 11 66 60 56 48 46 37 78 53 57 75 4 358 75 67 34 11 334 293 283 279 278 330 327 318 309 325 308 314
333 334 340 360 21 44 26 53 25 14 356 347 336 2 1 4 49 53 18 34 34 36 63 46 26 81 21 97 73 42 45 76 43 59 23 322 329 310 329 337 308 289 291 304
339 339 358 23 17 13 340 320 27 53 29 359 303 357 62 28 38 62 30 8 73 33 54 45 345 90 74 33 335 289 247 37 17 344 306 331 315 308 312 307 300 302 305 307
344 359 8 8 338 327 342 354 338 102 48 9 315 68 70 43 57 55 118 16 70 89 53 83 27 73 351 337 344 270 263 262 342 332 3 353 332 337 319 315 312 308 308 312
9 2 358 321 329 359 336 340 341 14 32 18 22 15 43 63 28 99 7 114 215 145 83 317 147 124 210 40 67 68 70 69 52 37 16 1 347 335 326 324 327 351 328 322
332 317 328 348 347 309 292 37 122 330 42 55 355 54 18 40 1 1 47 23 211 73 127 191 161 99 96 88 75 69 58 48 39 32 34 24 11 357 352 14 353 346 334 330
0 15 329 334 345 282 333 58 113 21 349 349 306 168 247 178 237 76 47 205 61 101 217 187 74 116 133 108 82 67 64 52 51 58 46 27 18 21 18 16 7 355 352 349
357 357 353 350 357 18 323 337 341 1 306 249 315 180 261 283 192 161 227 77 218 233 202 96 111 145 128 101 89 91 65 52 62 57 38 36 27 26 11 14 12 12 14 7
352 335 357 18 336 290 290 294 274 271 271 113 118 276 304 195 148 299 83 183 209 271 60 105 148 134 121 109 106 94 68 57 58 53 43 40 34 32 27 23 30 35 28 34
331 317 321 341 290 9 18 236 275 213 149 115 205 187 226 176 353 220 222 304 347 80 112 141 133 128 122 120 111 94 69 65 63 56 51 45 42 36 31 39 37 43 44 47
300 144 340 310 285 281 313 332 358 28 288 317 300 264 56 26 232 212 8 10 91 123 137 127 126 131 130 126 115 99 76 70 67 62 57 53 51 50 47 47 44 48 54 57